User: anonymous   Login
Location: Brunembert
(50.7122°N, 1.8935°E)
Time: 11:03:05
(UTC+00:00)
Language:

TSX-5 - Orbit

View from above orbital plane
View from above orbital plane
View from above satellite
View from above satellite

Ground track
Ground track

The orbit data is extracted from the following two-line orbital elements,

1 26374U 00030A   21173.87786351  .00002182  00000-0  18296-3 0  9996
2 26374  68.9276  11.4157 0633260  43.3090 321.6027 14.09350153 62426
Epoch (UTC): 22 June 2021 21:04:07
Eccentricity: 0.0633260
inclination: 68.9276°
perigee height: 403 km
apogee height: 1320 km
right ascension of ascending node: 11.4157°
argument of perigee: 43.3090°
revolutions per day: 14.09350153
mean anomaly at epoch: 321.6027°
orbit number at epoch: 6242

The dashed part of the orbit path shows where the satellite is in the earth's shadow,  

DLR